EHI
2 2 2 4 6 6 8 9 7 5 4 2 2 2 1 0 0 0 0 0 0 0 0 0 0 0 0 0 0 0 0 0 0 0 0 0 0 0 0 0 0 0 0
1 1 2 4 6 7 9 10 9 6 4 3 2 1 1 0 0 0 0 0 0 0 0 0 0 0 0 0 0 0 0 0 0 0 0 0 0 0 0 0 0 0 0
1 2 3 4 6 8 10 11 10 8 6 4 1 0 0 0 0 0 0 0 0 0 0 0 0 0 0 0 0 0 0 0 0 0 0 0 0 0 0 0 0 0 0
1 2 3 4 6 8 10 11 10 9 7 4 2 0 0 0 0 0 0 0 0 0 0 0 0 0 0 0 0 0 0 0 0 0 0 0 0 0 0 0 0 0 0
1 3 4 5 5 6 8 10 10 10 9 6 3 2 1 0 0 0 0 0 0 0 0 0 0 0 0 0 0 0 0 1 0 0 0 0 0 0 0 0 0 0 0
1 3 5 6 5 5 7 9 10 11 10 8 5 3 2 1 0 0 0 0 0 0 0 0 0 0 0 0 0 0 0 0 0 0 0 0 0 0 0 0 0 0 0
2 3 6 7 6 6 7 9 10 12 12 10 7 4 2 1 0 0 0 0 0 0 0 0 0 0 0 0 0 0 0 0 0 0 0 0 0 0 0 0 0 0 0
3 4 6 8 8 7 7 8 9 10 11 11 8 5 2 1 1 1 0 0 0 0 0 0 0 0 0 0 0 0 0 0 0 0 0 0 0 0 0 0 0 0 0
6 8 9 10 9 7 5 5 7 8 8 8 7 5 3 3 3 2 1 0 0 0 0 0 0 0 0 0 0 0 0 0 0 1 1 0 0 0 0 0 0 0 0
9 10 12 11 8 6 4 4 5 6 6 5 4 3 3 3 4 4 3 1 0 0 0 0 0 0 0 0 0 0 0 0 0 1 1 1 1 1 1 1 1 0 0
9 9 10 11 9 6 5 4 5 5 5 3 1 1 1 3 3 4 3 2 1 0 0 0 0 0 0 0 0 0 0 0 0 1 1 1 2 2 2 2 1 0 0
7 8 8 10 10 9 7 4 4 4 4 2 1 0 1 3 4 3 3 3 2 1 0 0 0 0 0 0 0 0 0 0 0 0 0 1 1 1 1 1 1 0 0
8 9 9 9 10 10 7 4 3 4 3 1 0 1 3 6 6 5 4 5 3 1 0 0 0 0 0 0 0 0 0 0 0 0 0 0 0 0 0 0 0 0 0
9 10 10 8 8 9 6 4 4 4 4 1 1 2 5 8 9 7 6 5 3 1 0 0 0 0 0 0 0 0 0 0 0 0 0 0 0 0 0 0 0 0 0
11 12 10 7 6 6 5 3 3 4 3 1 2 5 7 9 10 8 6 3 1 0 0 0 0 0 0 0 0 0 0 0 0 0 0 0 0 0 0 0 0 0 0
11 11 9 7 5 3 3 3 3 3 1 1 2 5 6 7 8 7 4 2 0 0 0 0 0 0 0 0 0 0 0 0 0 0 0 0 0 0 0 0 0 0 0
8 8 7 6 4 3 3 3 3 2 1 1 2 3 3 3 4 4 3 2 1 0 0 0 0 0 0 0 0 0 0 0 0 0 0 0 0 0 0 0 0 0 0
5 5 6 5 4 3 3 3 2 1 2 2 3 2 1 0 1 2 3 3 2 1 0 0 0 0 0 0 0 0 0 0 0 0 0 0 0 0 0 0 0 0 0
2 3 4 4 3 4 4 3 2 1 1 2 2 1 0 0 0 1 1 2 2 1 0 0 0 0 0 0 0 0 0 0 0 0 0 0 0 0 0 0 0 0 0
1 1 2 2 3 4 4 3 3 2 1 1 1 0 0 0 0 0 0 1 1 0 0 0 0 0 0 0 0 0 0 0 0 0 0 0 0 0 0 0 0 0 0
0 1 2 1 2 4 4 3 3 1 0 0 0 0 0 0 0 0 0 0 0 0 0 0 0 0 0 0 0 0 0 0 0 0 0 0 0 0 0 0 0 0 0
0 1 2 2 3 4 4 3 2 1 0 0 0 0 0 0 0 0 0 0 0 0 0 0 0 0 0 0 0 0 0 0 0 0 0 0 0 0 0 0 0 0 0
0 0 1 1 1 2 3 2 1 0 0 0 0 0 0 0 0 0 0 0 0 0 0 0 0 0 0 0 0 0 0 0 0 0 0 0 0 0 0 0 0 0 0
0 0 0 0 0 1 1 1 0 0 0 0 0 0 0 0 0 0 0 0 1 1 0 0 0 0 0 0 0 0 0 0 0 0 0 0 0 0 0 0 0 0 0
0 0 0 0 0 0 0 0 0 0 0 0 0 0 0 0 0 0 0 0 1 1 0 0 0 0 0 0 0 0 0 0 0 0 0 0 0 0 0 0 0 0 0
0 0 0 0 0 0 0 0 0 0 0 0 0 0 0 0 0 0 0 0 0 1 0 0 0 0 0 0 0 0 0 0 0 0 0 0 0 0 0 0 0 0 0
Wind_Speed
6 5 5 5 5 5 5 4 4 3 3 2 1 1 1 1 1 1 2 2 2 3 3 2 2 2 2 1 2 2 2 1 1 2 2 2 2 2 1 1 2 2 2
6 5 5 4 4 4 4 4 3 3 3 2 2 1 2 1 1 1 2 2 2 2 2 2 2 2 2 2 2 2 1 1 1 1 1 1 2 2 1 1 1 1 2
7 6 6 5 4 3 3 4 4 4 3 3 2 2 2 1 1 1 1 1 2 3 2 2 2 2 1 1 1 1 2 0 1 1 1 1 1 1 1 1 2 2 2
5 6 5 5 4 4 3 3 3 4 3 4 3 2 2 1 1 1 1 1 1 2 2 2 2 2 2 1 1 1 1 1 0 1 2 1 1 1 0 1 1 2 2
5 5 5 4 4 3 3 3 3 3 3 3 3 3 2 2 1 1 1 1 1 1 2 2 1 2 2 1 1 1 1 1 1 1 1 1 2 1 2 0 0 1 1
5 4 4 4 3 3 3 3 3 3 3 3 4 4 3 2 2 2 1 1 1 1 2 1 1 1 1 1 1 1 1 0 1 0 0 1 1 0 1 1 1 0 0
5 5 4 4 3 3 3 4 4 3 3 3 3 4 4 3 3 2 2 1 1 1 1 1 1 1 1 1 1 1 0 0 1 1 0 1 1 0 1 1 0 0 0
5 6 5 4 4 3 3 3 3 3 3 3 3 3 4 2 2 2 2 1 1 1 1 1 1 1 1 1 1 1 0 0 1 0 0 0 0 1 1 1 1 0 0
5 6 6 6 5 4 3 3 4 3 3 3 3 3 3 2 2 1 2 1 1 1 1 1 1 1 1 1 1 1 0 0 1 0 0 0 0 0 0 1 1 1 0
4 5 4 4 4 4 3 3 4 3 3 2 2 3 2 2 2 1 1 1 1 1 1 1 1 1 1 1 1 1 0 1 0 0 1 0 0 0 1 0 0 0 2
4 4 4 3 3 3 3 3 3 3 3 2 2 2 2 2 2 1 1 1 1 1 1 1 1 1 1 1 1 1 0 0 1 0 0 0 1 0 0 0 0 0 1
4 4 4 4 3 3 3 2 2 3 3 3 3 3 3 2 2 1 1 1 1 0 1 1 1 1 0 0 1 1 0 0 1 1 0 1 0 0 0 0 0 0 1
4 4 4 3 3 2 2 2 2 3 3 3 3 3 3 3 2 2 1 1 1 1 1 0 1 1 1 1 1 0 0 1 1 1 1 1 1 1 0 0 0 1 0
4 4 3 3 2 2 2 2 2 2 2 3 3 3 3 3 3 2 2 2 1 1 1 0 1 1 1 1 0 0 0 0 0 1 1 1 0 1 1 1 1 1 1
3 3 3 3 2 2 2 2 2 2 2 2 2 2 2 2 2 2 2 2 1 1 1 1 0 0 0 0 0 0 1 0 0 0 0 0 1 1 0 0 1 1 1
2 2 3 3 2 2 2 2 2 3 3 2 2 2 3 2 2 2 2 2 2 1 1 1 1 0 1 0 1 0 1 0 0 0 0 1 1 1 1 1 1 1 1
1 1 1 2 2 3 2 2 2 2 3 2 2 2 2 2 2 2 2 2 2 1 1 0 1 1 0 1 1 0 1 0 0 0 0 0 0 1 1 0 0 0 1
1 0 1 0 1 2 2 3 2 2 2 2 2 2 3 2 2 2 2 2 2 2 1 1 1 1 1 1 0 1 1 1 1 0 0 1 1 1 1 1 1 1 1
1 0 0 0 0 1 2 3 3 2 2 2 2 2 3 3 3 2 2 2 2 2 2 1 1 1 1 1 1 1 1 1 1 0 1 1 1 1 1 1 0 0 1
1 1 1 1 0 0 2 3 2 2 2 2 2 2 2 3 3 3 2 2 2 2 2 2 1 2 2 2 2 2 1 1 1 0 1 1 2 1 1 1 1 0 1
1 1 1 1 1 1 2 2 2 2 2 2 1 1 2 2 2 2 2 2 2 2 2 2 2 2 2 3 4 3 1 1 1 1 1 1 3 2 1 1 1 1 1
1 1 0 0 1 1 1 1 2 1 1 2 2 2 2 2 2 2 2 2 3 3 3 2 2 2 2 2 3 3 3 2 1 1 0 1 4 3 2 1 1 1 0
1 1 0 0 1 1 1 1 1 2 2 2 2 2 2 2 2 2 2 2 2 2 2 2 2 1 1 2 3 4 4 3 1 1 1 1 3 3 2 3 3 1 1
1 1 1 1 1 1 1 1 1 1 3 3 2 2 2 2 2 2 2 2 2 2 2 2 2 2 1 1 1 2 2 2 2 1 1 3 3 2 2 2 2 2 2
1 1 2 2 2 1 2 2 2 2 2 3 2 2 2 2 2 1 1 1 2 3 3 2 2 2 3 3 2 2 2 2 2 1 0 0 1 1 1 1 1 1 1
1 2 2 2 2 2 2 2 2 2 2 2 2 2 2 2 2 2 0 1 1 3 4 4 3 2 3 3 3 3 3 3 3 2 2 2 2 2 2 2 2 1 2
Wind_Direction
163 151 150 141 142 148 139 131 134 131 120 101 90 90 85 70 70 83 88 82 71 74 69 60 60 60 66 64 76 79 63 47 55 68 40 14 55 80 72 47 56 57 68
158 155 145 137 150 147 141 143 135 129 125 123 125 123 110 98 83 58 50 48 67 79 84 87 83 70 56 54 78 81 69 15 17 59 80 46 11 7 46 69 63 57 64
163 160 157 151 151 147 153 151 149 146 140 131 117 95 84 80 78 73 47 23 57 77 67 66 85 100 98 72 71 89 90 59 352 38 80 110 167 314 357 54 71 54 59
154 149 156 152 151 151 147 150 158 148 139 133 131 137 136 135 130 130 142 89 69 79 82 74 68 82 84 78 35 75 88 97 15 0 17 52 122 138 47 346 35 57 64
150 146 148 145 140 141 151 170 168 147 144 148 148 155 147 139 127 117 120 108 90 95 93 88 86 81 83 85 54 56 62 87 88 52 3 13 4 21 122 200 323 14 33
151 149 144 138 138 132 161 170 169 154 145 158 162 163 154 153 139 127 123 133 129 105 102 98 95 93 98 88 74 77 53 60 90 62 34 72 49 16 83 151 199 168 294
153 145 139 147 146 151 158 170 163 160 161 172 174 174 164 171 165 165 164 163 131 108 121 91 106 100 96 102 103 113 140 152 144 180 96 56 49 72 74 99 206 179 246
150 146 154 155 153 158 159 160 171 171 170 181 188 168 157 161 164 169 144 159 158 170 163 132 128 116 80 59 68 79 125 100 124 146 126 89 27 68 96 124 123 13 337
146 146 152 151 152 160 166 175 170 165 170 188 176 162 153 142 143 157 137 143 152 168 134 127 127 118 106 88 90 84 27 42 73 152 175 130 156 107 102 107 139 147 179
126 128 131 139 151 155 161 168 166 168 167 180 173 158 148 147 148 157 156 156 161 147 140 142 136 123 112 102 103 104 71 75 35 75 75 31 80 29 74 91 317 162 161
126 127 129 137 136 138 144 153 165 163 162 165 157 148 138 143 146 161 161 137 113 119 149 158 166 135 132 134 130 133 134 155 213 249 142 239 173 181 170 119 45 312 130
122 119 128 131 131 141 153 156 175 167 157 163 160 155 150 141 135 134 126 110 100 117 140 151 149 132 121 113 127 147 172 178 196 211 194 241 234 218 176 158 202 240 183
125 121 120 125 133 143 147 154 170 161 154 159 162 158 152 151 159 151 134 120 119 92 93 123 134 131 116 69 49 67 184 192 200 202 204 229 223 238 240 235 200 202 173
128 126 127 130 130 139 153 153 144 135 150 157 166 164 160 155 159 154 150 139 135 112 104 136 117 106 102 88 49 234 291 166 195 215 210 204 223 245 207 206 182 145 143
145 146 147 146 145 149 173 163 153 151 155 161 164 151 135 127 131 140 141 128 120 124 124 104 78 91 136 235 72 235 296 298 283 253 172 114 77 54 80 95 146 111 140
156 160 163 160 170 179 191 167 160 162 159 159 156 135 131 126 130 137 131 122 121 133 101 118 136 126 304 52 97 69 280 281 349 250 194 149 105 75 92 79 105 121 151
109 117 187 188 194 192 189 174 173 159 160 161 152 141 139 144 149 141 128 137 151 150 141 169 179 186 166 112 95 357 285 206 233 288 308 293 98 71 94 144 106 115 230
31 32 303 257 212 189 168 156 151 148 157 154 148 137 143 149 144 133 141 167 162 169 181 199 197 166 177 124 160 253 239 222 222 198 176 102 74 59 46 186 173 195 254
337 354 333 312 251 191 158 144 151 160 158 157 155 152 153 157 154 157 172 186 173 178 189 206 207 186 195 179 211 197 235 240 224 165 73 107 117 89 37 96 188 208 273
17 9 341 329 199 117 117 132 156 161 162 162 162 159 160 160 167 176 182 192 185 187 189 196 207 208 206 205 201 184 196 255 255 213 145 123 128 131 94 109 134 191 278
9 359 341 352 100 117 119 149 171 179 168 145 144 157 164 166 172 176 183 190 196 193 192 190 203 211 218 201 200 197 207 236 241 237 167 156 153 137 135 110 161 211 258
6 328 319 45 104 129 137 161 196 168 129 131 159 173 181 182 165 170 197 199 196 198 199 196 209 208 196 197 213 215 228 256 234 242 189 176 180 183 183 196 200 171 360
295 277 222 218 178 162 157 193 205 159 149 160 193 191 189 180 170 174 192 200 197 201 203 201 210 210 194 203 211 221 233 252 261 241 201 180 189 193 205 218 219 208 189
267 255 216 227 226 186 174 201 206 183 172 179 196 194 184 170 173 180 187 194 198 205 211 209 212 206 193 189 206 219 220 231 250 259 195 182 186 201 210 218 226 218 207
268 263 246 241 239 198 186 202 208 209 199 190 191 193 189 178 182 181 197 208 202 196 205 218 211 201 211 222 216 207 217 221 223 213 200 188 176 199 207 196 204 212 208
275 259 253 243 243 223 216 205 203 207 205 208 197 190 184 181 175 165 177 338 223 202 206 214 208 216 219 216 217 226 233 233 215 192 197 212 205 200 203 203 210 209 210